User: anonymous   Login
Location: Brabourne
(51.1333°N, 1.0000°E)
Time: 23:59:15
(UTC+00:00)
Language:

AVL-802 Canister - Orbit

View from above orbital plane
View from above orbital plane
View from above satellite
View from above satellite

Ground track
Ground track

The orbit data is extracted from the following two-line orbital elements,

1 05384U 71067N   22222.25662814  .00000159  00000-0  60257-4 0  9994
2 05384  87.6232  54.9793 0079190 327.0210  32.6054 14.23945853642925
Epoch (UTC): 10 August 2022 06:09:32
Eccentricity: 0.0079190
inclination: 87.6232°
perigee height: 755 km
apogee height: 869 km
right ascension of ascending node: 54.9793°
argument of perigee: 327.0210°
revolutions per day: 14.23945853
mean anomaly at epoch: 32.6054°
orbit number at epoch: 64292

The dashed part of the orbit path shows where the satellite is in the earth's shadow,  

DLR